User: anonymous   Login
Location: Unspecified
(0.0000°N, 0.0000°E)
Time: 06:21:22
(UTC+00:00)
Language:

SAUDISAT 3 - Orbit

View from above orbital plane
View from above orbital plane
View from above satellite
View from above satellite

Ground track
Ground track

The orbit data is extracted from the following two-line orbital elements,

1 31118U 07012B   18172.84842299 -.00000045  00000-0  14135-6 0  9999
2 31118  97.7656 152.3170 0015121 160.5792 199.5997 14.69101159599284
Epoch (UTC): 21 June 2018 20:21:43
Eccentricity: 0.0015121
inclination: 97.7656°
perigee height: 653 km
apogee height: 674 km
right ascension of ascending node: 152.3170°
argument of perigee: 160.5792°
revolutions per day: 14.69101159
mean anomaly at epoch: 199.5997°
orbit number at epoch: 59928

The dashed part of the orbit path shows where the satellite is in the earth's shadow,  

DLR